ONEWEB-0035, 45143

Orbit data source: Space-Track

ONEWEB-0035, 45143 is a payload satellite owned by One Web (UK) in LEO that was launched on Thu, 06 Feb 2020 UTC via a SOYUZ-2-1B launch vehicle from the Tyuratam Missile And Space Complex (TTMTR). Payload-class satellites include a variety of spacecraft equipped with specific instruments for various scientific and technological missions. These include communications satellites like Starlink; space stations such as the ISS; scientific satellites like the Hubble; Earth observation satellites from companies like Planet Labs, Umbra, and HawkEye 360; GPS; miniature CubeSats for education and research; and military/defense satellites.

Loading next visibility...
Identifier
45143, 2020-008N
Orbit
LEO
Country
Flag of UKUK
Related business
Manufacturer
One Web
Mission
Operational Commercial Communications
Bus & Motor
ARROW, Unknown motor
Mass
148 kg wet, ~140 kg dry
Launch date (UTC)
2020-02-06 (6 years ago)
Launch vehicle
SOYUZ-2-1B
Launch site
Tyuratam Missile And Space Complex (TTMTR)
Object type
Payload
Rocket body
Debris
Shape & HBR
Trap Box + 2 Pan, 6.7 m
Radar Cross Section
3.464 m², Large (>1 m²)

Expand to show TLE details & history
Last TLE update: 5 hours ago

TLE from 5 hours ago
0 ONEWEB-0035
1 45143U 20008N   25291.94657749  .00000537  00000-0  15015-2 0  9996
2 45143  87.8757  84.3816 0001683  95.5979 264.5340 13.10374980276345
Epoch: 2025-10-18T22:43Z
TLE epoch observation values (Epoch: 2025-10-18T22:43:04.295Z)
Latitude
-0.00003°
Longitude
75.94341°
Altitude
1,224.718 km
Speed
7.242 km/s
True Right ascension
05h 37m 31s
True Declination
0° 00' 00"
Sunlit
Object was in daylight at epoch
Visualization orbit readout
Latitude
Unknown
Longitude
Unknown
Altitude
Unknown
Speed
Unknown
Apparent Right ascension
Unknown
Apparent Declination
Unknown
Sunlit
N/A
Visualization observer readout
Local Sidereal Time
22:51:26
Azimuth
Unknown
Elevation
Unknown
Doppler factor
Unknown
Orbital elements
Apogee altitude
1,220.107 km
Perigee altitude
1,217.55 km
Semi-major axis
7,596.966 km
Eccentricity
0.00017
Inclination
87.8757°
RAAN
84.3816°
Arg. of periapsis
95.5979°
True anomaly
264.5148°
Mean anomaly
264.534°
Eccentric anomaly
264.5244°
Mean motion
3.2778 °/min
Orbital period
109.83 mins
BSTAR
0.0015015
Loading maneuver chart data...
Computing Atmospheric mass density...
Loading historical data...
Loading historical data...
Loading historical data...
Loading historical data...
Loading historical data...
Loading historical data...
Loading historical data...

Documentation

Showing up to 5 results
|